FW3572 Weather Reports


time (UTC)temp
F
wind
direction
speed
knots
gust
knots
rain 1hr
in
rain 24hr
in
rain mn
in
humidity
%
barometer
mb
20240222102049 51 336 1.7 4.3 0.00 0.00 0.00 69 1021.3
20240222101549 51 329 0.9 3.5 0.00 0.00 0.00 69 1021.2
20240222101052 51 329 0.9 3.5 0.00 0.00 0.00 69 1021.1
20240222100550 51 300 0.9 2.6 0.00 0.00 0.00 69 1021.2
20240222100050 51 315 0.9 3.5 0.00 0.00 0.00 69 1020.9
20240222095549 51 313 0.9 3.5 0.00 0.00 0.00 69 1020.8
20240222095047 51 311 0.9 3.5 0.00 0.00 0.00 69 1020.9
20240222094547 51 325 0.9 3.5 0.00 0.00 0.00 69 1021.0
20240222094047 51 355 0.9 4.3 0.00 0.00 0.00 68 1021.1
20240222093546 51 355 0.9 4.3 0.00 0.00 0.00 68 1021.0
20240222093046 51 327 0.9 4.3 0.00 0.00 0.00 68 1021.0
20240222092546 51 306 0.9 3.5 0.00 0.00 0.00 68 1021.0
20240222092049 51 329 0.9 3.5 0.00 0.00 0.00 68 1021.0
20240222091549 51 318 1.7 3.5 0.00 0.00 0.00 68 1021.1
20240222091045 51 317 0.9 2.6 0.00 0.00 0.00 68 1021.1
20240222090548 51 317 0.0 4.3 0.00 0.00 0.00 68 1021.1
20240222090046 51 340 0.9 3.5 0.00 0.00 0.00 68 1021.0
20240222085544 51 335 0.9 3.5 0.00 0.00 0.00 68 1021.1
20240222085043 50 338 0.0 2.6 0.00 0.00 0.00 68 1021.1
20240222084543 50 327 0.0 2.6 0.00 0.00 0.00 68 1021.1
20240222084043 50 322 0.0 1.7 0.00 0.00 0.00 68 1021.1
20240222083543 50 331 0.0 2.6 0.00 0.00 0.00 68 1021.1
20240222083044 50 337 0.0 2.6 0.00 0.00 0.00 68 1021.2
20240222082545 50 321 0.9 3.5 0.00 0.00 0.00 68 1021.2
20240222082045 50 333 0.9 3.5 0.00 0.00 0.00 68 1021.2
20240222081543 51 321 0.0 5.2 0.00 0.00 0.00 68 1021.1
20240222081041 50 346 1.7 5.2 0.00 0.00 0.00 68 1021.7
20240222080542 50 304 1.7 5.2 0.00 0.00 0.00 68 1021.2
20240222080041 50 304 1.7 5.2 0.00 0.00 0.00 68 1021.1
20240222075541 50 328 1.7 5.2 0.00 0.00 0.00 68 1021.3
20240222075040 50 333 0.9 4.3 0.00 0.00 0.00 68 1021.5
20240222074540 51 315 0.9 3.5 0.00 0.00 0.00 68 1021.4
20240222074039 51 307 0.9 4.3 0.00 0.00 0.00 68 1021.3
20240222073539 51 306 0.9 4.3 0.00 0.00 0.00 68 1021.2
20240222073038 51 323 0.9 4.3 0.00 0.00 0.00 68 1021.4
20240222072541 51 319 0.0 4.3 0.00 0.00 0.00 68 1021.4
20240222072038 51 340 1.7 4.3 0.00 0.00 0.00 68 1021.4
20240222071544 51 314 0.0 3.5 0.00 0.00 0.00 67 1021.3
20240222071037 51 328 0.0 4.3 0.00 0.00 0.00 67 1021.3
20240222070540 51 322 0.9 4.3 0.00 0.00 0.00 67 1021.4
20240222070035 51 309 0.9 3.5 0.00 0.00 0.00 67 1021.4
20240222065534 51 334 0.9 3.5 0.00 0.00 0.00 67 1021.6
20240222065036 51 305 0.9 3.5 0.00 0.00 0.00 67 1021.5
20240222064634 51 305 0.9 3.5 0.00 0.00 0.00 67 1021.6
20240222064032 52 322 0.9 4.3 0.00 0.00 0.00 67 1021.7
20240222063534 52 302 0.0 5.2 0.00 0.00 0.00 67 1021.8
20240222063030 52 313 0.9 5.2 0.00 0.00 0.00 67 1022.0
20240222062530 52 331 0.9 3.5 0.00 0.00 0.00 67 1022.0
20240222062030 52 338 0.9 4.3 0.00 0.00 0.00 67 1022.0
20240222061529 52 328 0.9 4.3 0.00 0.00 0.00 67 1022.2
20240222061028 52 331 0.9 3.5 0.00 0.00 0.00 67 1022.2
20240222060527 52 309 0.0 4.3 0.00 0.00 0.00 66 1022.3
20240222060027 52 323 0.9 5.2 0.00 0.00 0.00 66 1022.4
20240222055527 52 302 0.9 5.2 0.00 0.00 0.00 66 1022.3
20240222055026 52 355 0.9 5.2 0.00 0.00 0.00 66 1022.5
20240222054526 52 293 1.7 5.2 0.00 0.00 0.00 66 1022.5
20240222054025 52 321 1.7 5.2 0.00 0.00 0.00 66 1022.4
20240222053525 52 320 0.0 4.3 0.00 0.00 0.00 66 1022.4
20240222053024 52 273 0.9 5.2 0.00 0.00 0.00 66 1022.5
20240222052524 52 302 1.7 5.2 0.00 0.00 0.00 66 1022.5
20240222052024 52 314 0.9 5.2 0.00 0.00 0.00 66 1022.5
20240222051524 52 320 0.9 5.2 0.00 0.00 0.00 66 1022.5
20240222051024 52 297 0.9 3.5 0.00 0.00 0.00 65 1022.5
20240222050521 53 320 0.9 4.3 0.00 0.00 0.00 65 1022.6
20240222050035 53 298 0.9 4.3 0.00 0.00 0.00 65 1022.6
20240222045520 53 315 0.0 5.2 0.00 0.00 0.00 65 1022.7
20240222045019 53 309 0.9 5.2 0.00 0.00 0.00 65 1022.8
20240222044521 53 319 0.0 3.5 0.00 0.00 0.00 65 1022.8
20240222044018 53 309 0.9 3.5 0.00 0.00 0.00 65 1023.0
20240222043519 53 324 0.9 3.5 0.00 0.00 0.00 65 1023.1
20240222043018 53 332 0.9 4.3 0.00 0.00 0.00 65 1023.2
20240222042518 53 311 0.0 3.5 0.00 0.00 0.00 65 1023.2
20240222042019 53 326 0.9 3.5 0.00 0.00 0.00 65 1023.1
20240222041518 53 332 0.0 3.5 0.00 0.00 0.00 65 1023.3
20240222041017 53 334 0.0 3.5 0.00 0.00 0.00 65 1023.3
20240222040517 53 317 0.0 4.3 0.00 0.00 0.00 64 1023.5
20240222040017 54 320 0.9 4.3 0.00 0.00 0.00 64 1023.6
20240222035516 54 355 0.9 3.5 0.00 0.00 0.00 64 1023.7
20240222035016 54 337 0.0 3.5 0.00 0.00 0.00 64 1023.7
20240222034518 54 320 0.9 5.2 0.00 0.00 0.00 64 1023.9
20240222034017 54 327 0.9 5.2 0.00 0.00 0.00 64 1023.9
20240222033516 54 337 1.7 5.2 0.00 0.00 0.00 64 1023.9
20240222033023 54 325 0.9 5.2 0.00 0.00 0.00 64 1023.9
20240222032516 54 328 0.9 4.3 0.00 0.00 0.00 64 1024.0
20240222032018 54 307 1.7 7.0 0.00 0.00 0.00 64 1024.0
20240222031517 55 337 1.7 7.8 0.00 0.00 0.00 64 1024.0
20240222031015 55 339 1.7 7.8 0.00 0.00 0.00 64 1023.9
20240222030516 55 336 1.7 5.2 0.00 0.00 0.00 64 1024.0
20240222030017 55 355 1.7 5.2 0.00 0.00 0.00 64 1024.1
20240222025515 54 333 1.7 5.2 0.00 0.00 0.00 64 1024.1
20240222025014 55 316 0.0 3.5 0.00 0.00 0.00 64 1024.1
20240222024514 55 301 0.0 3.5 0.00 0.00 0.00 63 1024.0
20240222024014 55 343 0.0 4.3 0.00 0.00 0.00 63 1024.2
20240222023513 55 311 0.9 7.0 0.00 0.00 0.00 63 1024.1
20240222023018 55 309 0.9 4.3 0.00 0.00 0.00 63 1024.1
20240222022514 55 302 1.7 5.2 0.00 0.00 0.00 63 1024.2
20240222022016 55 343 0.9 5.2 0.00 0.00 0.00 63 1024.2
20240222021513 55 320 1.7 3.5 0.00 0.00 0.00 63 1024.1
20240222021012 55 325 1.7 4.3 0.00 0.00 0.00 63 1024.1
20240222020512 56 298 1.7 4.3 0.00 0.00 0.00 63 1024.1
20240222020013 56 297 0.9 4.3 0.00 0.00 0.00 62 1024.0
20240222015512 56 308 0.9 4.3 0.00 0.00 0.00 62 1023.9
20240222015014 56 334 1.7 4.3 0.00 0.00 0.00 62 1024.0
20240222014511 56 334 1.7 7.0 0.00 0.00 0.00 62 1023.9
20240222014012 56 344 1.7 7.0 0.00 0.00 0.00 62 1024.0
20240222013511 56 331 1.7 4.3 0.00 0.00 0.00 62 1024.0
20240222013011 57 320 0.9 5.2 0.00 0.00 0.00 61 1024.0
20240222012511 57 297 1.7 5.2 0.00 0.00 0.00 62 1023.9
20240222012011 57 325 1.7 5.2 0.00 0.00 0.00 61 1023.9
20240222011532 58 311 1.7 7.0 0.00 0.00 0.00 61 1023.8
20240222011010 58 5 0.9 7.0 0.00 0.00 0.00 61 1023.8
20240222010511 58 355 1.7 5.2 0.00 0.00 0.00 61 1023.6
20240222010014 58 338 0.9 4.3 0.00 0.00 0.00 61 1023.5
20240222005509 58 340 0.9 7.8 0.00 0.00 0.00 61 1023.5
20240222005011 58 15 1.7 7.8 0.00 0.00 0.00 60 1023.5
20240222004510 58 342 0.9 7.8 0.00 0.00 0.00 60 1023.4
20240222004010 58 349 1.7 7.8 0.00 0.00 0.00 60 1023.4
20240222003508 59 360 2.6 7.8 0.00 0.00 0.00 60 1023.5
20240222003009 59 304 0.9 8.7 0.00 0.00 0.00 59 1023.6
20240222002509 59 302 1.7 8.7 0.00 0.00 0.00 59 1023.6
20240222002009 59 355 1.7 7.8 0.00 0.00 0.00 59 1023.7
20240222001509 59 342 2.6 8.7 0.00 0.00 0.00 59 1023.6
20240222001009 59 288 2.6 8.7 0.00 0.00 0.00 58 1023.7
20240222000508 59 351 0.9 10.4 0.00 0.00 0.00 58 1023.7
20240222000008 59 13 2.6 10.4 0.00 0.00 0.00 57 1023.7
20240221235507 60 350 2.6 10.4 0.00 0.00 0.00 57 1023.7
20240221235007 60 360 1.7 10.4 0.00 0.00 0.00 57 1023.6
20240221234515 60 325 1.7 10.4 0.00 0.00 0.00 56 1023.7
20240221234007 60 15 3.5 10.4 0.00 0.00 0.00 56 1023.6
20240221233507 60 360 2.6 11.3 0.00 0.00 0.00 55 1023.6
20240221233009 60 5 5.2 12.2 0.00 0.00 0.00 55 1023.6
20240221232507 61 310 3.5 12.2 0.00 0.00 0.00 54 1023.7
20240221232006 61 306 3.5 13.0 0.00 0.00 0.00 52 1023.6
20240221231506 61 289 3.5 13.0 0.00 0.00 0.00 52 1023.6
20240221231009 61 347 5.2 13.0 0.00 0.00 0.00 51 1023.6
20240221230506 61 316 2.6 14.8 0.00 0.00 0.00 51 1023.6
20240221230006 62 304 6.1 13.9 0.00 0.00 0.00 50 1023.5
20240221225505 62 37 5.2 13.9 0.00 0.00 0.00 49 1023.5
20240221225006 62 355 3.5 11.3 0.00 0.00 0.00 49 1023.4
20240221224507 63 17 4.3 13.9 0.00 0.00 0.00 48 1023.5
20240221224005 63 5 5.2 13.9 0.00 0.00 0.00 48 1023.4
20240221223505 63 296 5.2 15.6 0.00 0.00 0.00 47 1023.3
20240221223005 63 360 8.7 15.6 0.00 0.00 0.00 46 1023.2
20240221222504 64 346 6.1 15.6 0.00 0.00 0.00 47 1023.3
20240221222005 64 329 5.2 15.6 0.00 0.00 0.00 46 1023.3
20240221221505 65 300 5.2 12.2 0.00 0.00 0.00 47 1023.3
20240221221004 65 42 5.2 17.4 0.00 0.00 0.00 46 1023.1
20240221220504 65 309 7.8 17.4 0.00 0.00 0.00 46 1023.2
20240221220004 65 5 3.5 17.4 0.00 0.00 0.00 46 1023.1
20240221215503 66 53 5.2 14.8 0.00 0.00 0.00 45 1023.0
20240221215003 66 360 6.1 14.8 0.00 0.00 0.00 45 1023.0
20240221214605 66 326 4.3 14.8 0.00 0.00 0.00 45 1022.9
20240221214002 66 334 4.3 16.5 0.00 0.00 0.00 44 1023.0
20240221213503 67 32 6.1 19.1 0.00 0.00 0.00 44 1022.9
20240221213004 67 330 7.8 19.1 0.00 0.00 0.00 44 1023.0
20240221212502 68 5 3.5 13.0 0.00 0.00 0.00 44 1023.0
20240221212002 67 337 7.0 13.0 0.00 0.00 0.00 42 1022.9
20240221211502 68 267 6.1 16.5 0.00 0.00 0.00 41 1023.0
20240221211001 67 360 5.2 16.5 0.00 0.00 0.00 41 1023.0
20240221210501 68 277 6.1 15.6 0.00 0.00 0.00 40 1022.9
20240221210012 68 51 6.1 14.8 0.00 0.00 0.00 41 1023.0
20240221205501 68 170 8.7 14.8 0.00 0.00 0.00 39 1023.0
20240221205101 69 294 6.1 15.6 0.00 0.00 0.00 41 1022.9
20240221205001 69 355 6.1 15.6 0.00 0.00 0.00 41 1022.9
20240221204604 69 360 5.2 15.6 0.00 0.00 0.00 41 1022.9
20240221204059 69 360 7.0 14.8 0.00 0.00 0.00 41 1023.0
20240221203603 69 340 4.3 10.4 0.00 0.00 0.00 40 1023.0
20240221203104 69 22 3.5 14.8 0.00 0.00 0.00 42 1022.9
20240221202559 69 360 5.2 15.6 0.00 0.00 0.00 42 1023.0
20240221202103 69 355 7.8 15.6 0.00 0.00 0.00 42 1023.1
20240221201559 69 343 5.2 15.6 0.00 0.00 0.00 41 1022.9
20240221201503 69 281 5.2 15.6 0.00 0.00 0.00 42 1022.9
20240221201059 69 64 7.0 15.6 0.00 0.00 0.00 42 1022.9
20240221200558 69 302 3.5 15.6 0.00 0.00 0.00 42 1022.9
20240221200059 69 334 4.3 13.9 0.00 0.00 0.00 42 1023.0
20240221195557 69 326 4.3 15.6 0.00 0.00 0.00 42 1023.0
20240221195057 69 351 7.8 15.6 0.00 0.00 0.00 42 1023.1
20240221194556 69 338 6.1 13.9 0.00 0.00 0.00 42 1023.1
20240221194057 69 49 5.2 15.6 0.00 0.00 0.00 41 1023.1
20240221193555 69 360 6.1 15.6 0.00 0.00 0.00 42 1023.1
20240221193056 69 350 4.3 16.5 0.00 0.00 0.00 41 1023.2
20240221192554 69 307 7.0 16.5 0.00 0.00 0.00 40 1023.2
20240221192054 69 249 7.8 14.8 0.00 0.00 0.00 41 1023.2
20240221191554 69 275 5.2 16.5 0.00 0.00 0.00 40 1023.3
20240221191053 70 341 7.0 14.8 0.00 0.00 0.00 39 1023.4
20240221190552 70 355 3.5 15.6 0.00 0.00 0.00 40 1023.4
20240221190053 69 266 7.8 18.2 0.00 0.00 0.00 40 1023.4
20240221185551 69 34 9.6 17.4 0.00 0.00 0.00 40 1023.4
20240221185053 69 114 6.1 16.5 0.00 0.00 0.00 41 1023.4
20240221184551 69 44 8.7 16.5 0.00 0.00 0.00 40 1023.5
20240221184051 69 68 5.2 14.8 0.00 0.00 0.00 41 1023.5
20240221183550 69 304 5.2 15.6 0.00 0.00 0.00 41 1023.6
20240221183051 69 308 7.8 14.8 0.00 0.00 0.00 40 1023.6
20240221182550 69 214 5.2 17.4 0.00 0.00 0.00 41 1023.6
20240221182054 69 321 7.0 15.6 0.00 0.00 0.00 42 1023.7
20240221181550 69 322 8.7 15.6 0.00 0.00 0.00 41 1023.8
20240221181050 69 14 6.1 16.5 0.00 0.00 0.00 41 1023.9
20240221180553 69 350 5.2 14.8 0.00 0.00 0.00 41 1023.9
20240221180101 69 53 5.2 15.6 0.00 0.00 0.00 42 1024.1
20240221175548 69 348 7.8 15.6 0.00 0.00 0.00 41 1024.2
20240221175148 70 360 6.1 13.9 0.00 0.00 0.00 41 1024.3
20240221174549 69 11 7.0 13.9 0.00 0.00 0.00 42 1024.3
20240221174047 69 80 7.0 16.5 0.00 0.00 0.00 42 1024.4
20240221173548 69 32 6.1 16.5 0.00 0.00 0.00 42 1024.5
20240221173059 69 319 5.2 16.5 0.00 0.00 0.00 43 1024.6
20240221172547 69 324 4.3 13.9 0.00 0.00 0.00 43 1024.7
20240221172049 68 157 6.1 13.9 0.00 0.00 0.00 43 1024.7
20240221171546 69 293 6.1 13.9 0.00 0.00 0.00 42 1024.8
20240221171045 68 338 7.0 14.8 0.00 0.00 0.00 42 1024.9
20240221170543 68 350 6.1 14.8 0.00 0.00 0.00 43 1024.9
20240221170058 68 34 6.1 14.8 0.00 0.00 0.00 42 1025.0
20240221165542 68 323 2.6 15.6 0.00 0.00 0.00 43 1025.1
20240221165042 68 343 7.8 14.8 0.00 0.00 0.00 42 1025.1
20240221164542 68 325 6.1 15.6 0.00 0.00 0.00 42 1025.2
20240221164043 67 344 6.1 15.6 0.00 0.00 0.00 42 1025.3
20240221163541 67 350 6.1 14.8 0.00 0.00 0.00 42 1025.3
20240221163041 67 5 7.8 14.8 0.00 0.00 0.00 42 1025.4
20240221162542 67 340 7.0 13.9 0.00 0.00 0.00 41 1025.4
20240221162043 67 49 7.0 13.9 0.00 0.00 0.00 42 1025.6
20240221161540 67 290 4.3 13.9 0.00 0.00 0.00 42 1025.5
20240221161039 67 339 4.3 13.0 0.00 0.00 0.00 42 1025.5
20240221160539 67 326 5.2 13.0 0.00 0.00 0.00 42 1025.7
20240221160043 67 360 4.3 11.3 0.00 0.00 0.00 42 1025.7
20240221155638 67 15 1.7 16.5 0.00 0.00 0.00 43 1025.7
20240221155037 66 349 4.3 16.5 0.00 0.00 0.00 44 1025.7
20240221154540 66 351 4.3 16.5 0.00 0.00 0.00 44 1025.6
20240221154035 65 345 7.0 17.4 0.00 0.00 0.00 44 1025.7
20240221153536 65 15 6.1 17.4 0.00 0.00 0.00 43 1025.6
20240221153042 65 333 7.8 15.6 0.00 0.00 0.00 44 1025.7
20240221152535 65 323 6.1 17.4 0.00 0.00 0.00 44 1025.6
20240221152033 65 325 8.7 17.4 0.00 0.00 0.00 43 1025.6
20240221151533 65 341 7.8 15.6 0.00 0.00 0.00 44 1025.6
20240221151031 65 360 5.2 17.4 0.00 0.00 0.00 44 1025.6
20240221150531 65 342 6.1 17.4 0.00 0.00 0.00 44 1025.7
20240221150030 64 355 8.7 13.0 0.00 0.00 0.00 44 1025.7
20240221145529 64 5 4.3 11.3 0.00 0.00 0.00 45 1025.6
20240221145028 64 19 5.2 11.3 0.00 0.00 0.00 46 1025.7
20240221144531 63 326 6.1 12.2 0.00 0.00 0.00 46 1025.7
20240221144026 63 343 6.1 12.2 0.00 0.00 0.00 47 1025.8
20240221143527 63 321 5.2 12.2 0.00 0.00 0.00 48 1025.7
20240221143031 62 299 5.2 12.2 0.00 0.00 0.00 49 1025.8
20240221142525 62 342 1.7 11.3 0.00 0.00 0.00 51 1025.8
20240221142021 61 331 1.7 8.7 0.00 0.00 0.00 54 1025.8
20240221141520 61 282 3.5 9.6 0.00 0.00 0.00 54 1025.8
20240221141019 60 315 2.6 9.6 0.00 0.00 0.00 56 1025.7
20240221140519 59 336 2.6 8.7 0.00 0.00 0.00 57 1025.8
20240221140016 58 345 3.5 8.7 0.00 0.00 0.00 58 1025.7
20240221135515 58 311 2.6 10.4 0.00 0.00 0.00 59 1025.6
20240221135014 57 296 3.5 10.4 0.00 0.00 0.00 60 1025.6
20240221134512 57 329 3.5 7.0 0.00 0.00 0.00 60 1025.6
20240221134011 56 323 3.5 7.8 0.00 0.00 0.00 61 1025.6
20240221133512 56 323 2.6 8.7 0.00 0.00 0.00 61 1025.6
20240221133013 56 313 2.6 8.7 0.00 0.00 0.00 61 1025.7
20240221132509 55 350 1.7 7.0 0.00 0.00 0.00 62 1025.6
20240221132006 55 301 2.6 7.8 0.00 0.00 0.00 63 1025.6
20240221131506 54 323 2.6 7.8 0.00 0.00 0.00 63 1025.6
20240221131005 54 324 2.6 7.8 0.00 0.00 0.00 63 1025.5
20240221130504 53 305 1.7 5.2 0.00 0.00 0.00 64 1025.4
20240221130003 53 286 1.7 5.2 0.00 0.00 0.00 64 1025.3
20240221125502 52 324 0.9 5.2 0.00 0.00 0.00 64 1025.3
20240221125002 52 324 1.7 5.2 0.00 0.00 0.00 64 1025.3
20240221124502 51 334 1.7 5.2 0.00 0.00 0.00 65 1025.3
20240221124002 51 333 0.9 5.2 0.00 0.00 0.00 65 1025.2
20240221123600 50 314 1.7 4.3 0.00 0.00 0.00 66 1025.1
20240221123100 50 304 0.9 7.0 0.00 0.00 0.00 66 1025.1
20240221122601 50 299 1.7 7.0 0.00 0.00 0.00 67 1025.1
20240221122501 50 308 0.9 4.3 0.00 0.00 0.00 67 1025.0
20240221122059 50 300 1.7 4.3 0.00 0.00 0.00 67 1025.0
20240221121658 49 299 1.7 4.3 0.00 0.00 0.00 67 1024.9
20240221121058 49 312 0.9 4.3 0.00 0.00 0.00 68 1024.8
20240221120558 49 310 1.7 4.3 0.00 0.00 0.00 68 1024.8
20240221120057 49 312 0.9 5.2 0.00 0.00 0.00 68 1024.8
20240221115557 49 330 1.7 5.2 0.00 0.00 0.00 68 1024.7
20240221115058 49 313 0.9 4.3 0.00 0.00 0.00 68 1024.7
20240221114607 49 315 0.9 4.3 0.00 0.00 0.00 69 1024.7
20240221114056 49 305 0.0 2.6 0.00 0.00 0.00 68 1024.6
20240221113555 49 326 0.0 2.6 0.00 0.00 0.00 69 1024.5
20240221113056 49 302 0.0 2.6 0.00 0.00 0.00 69 1024.5
20240221112555 49 323 0.0 1.7 0.00 0.00 0.00 69 1024.3
20240221112055 49 326 0.0 2.6 0.00 0.00 0.00 69 1024.3
20240221111557 49 313 0.0 1.7 0.00 0.00 0.00 69 1024.3
20240221111054 49 321 0.0 2.6 0.00 0.00 0.00 69 1024.2
20240221110555 49 331 0.0 2.6 0.00 0.00 0.00 69 1024.1
20240221110056 49 313 0.0 2.6 0.00 0.00 0.00 69 1024.1
20240221105553 49 315 0.0 2.6 0.00 0.00 0.00 69 1023.9
20240221105055 49 321 0.0 2.6 0.00 0.00 0.00 69 1023.8
20240221104558 49 327 0.0 3.5 0.00 0.00 0.00 69 1023.9
20240221104056 49 336 0.9 3.5 0.00 0.00 0.00 69 1023.8
20240221103552 49 302 0.0 5.2 0.00 0.00 0.00 69 1023.8
20240221103053 49 328 0.9 5.2 0.00 0.00 0.00 69 1023.7
20240221102552 49 315 0.9 3.5 0.00 0.00 0.00 69 1023.6